loading
|
Showing default

MESON-1, 59131

Orbit data source: Space-Track

MESON-1, 59131 is a payload satellite owned by Atomos (US) in SSO that was launched on Mon, 04 Mar 2024 UTC via an FALCON 9 launch vehicle from the Air Force Western Test Range (AFWTR). Payloads include a variety of satellites, spacecraft, and rockets equipped with specific instruments for various scientific and technological missions. These include communications satellites like Starlink; space stations such as the ISS; scientific satellites like the Hubble; Earth observation satellites from companies like Planet Labs, Umbra, and HawkEye 360; GPS; miniature CubeSats for education and research; and military/defense satellites.

Loading next visibility...
Loading greatness...
MESON-1 details
Identifier
59131, 2024-043AK
Orbit
SSO
Last TLE update14 hours ago
Origin
Flag of USAtomos (US)
ManufacturerAtomos
Mission statusOperational
MissionCommercial Technology
Bus & MotorATOMOS, Unknown motor
Mass~100 kg wet, ~100 kg dry
Launch date (UTC)
2024-03-04 (7 months ago)
Launch vehicle
FALCON 9
Launch site
Air Force Western Test Range (AFWTR)
Object type
Payload
Rocket body
Debris
Radar Cross SectionLarge (>1 m²)

Expand to show TLE details & history

TLE from 14 hours ago
0 MESON-1
1 59131U 24043AK  24261.31624056  .00023139  00000-0  10759-2 0  9996
2 59131  97.4879  24.2559 0011907 329.3730  30.6808 15.19908826 29798
Epoch: 2024-09-17T07:35Z
Definitive object data (Epoch: 2024-09-17T07:35:23.184Z)
Latitude-0.00006°
Longitude-86.32334°
Altitude502.155 km
Speed7.617 km/s
True Right ascension01h 37m 01s
True Declination0° 00' 00"
Sunlit
Object was in full shadow at TLE epoch
Predictive object data (real-time)
Latitude-41.12721°
Longitude-79.18895°
Altitude513.757 km
Speed7.61 km/s
Apparent Right ascension02h 15m 42s
Apparent Declination-40° 23' 31"
Sunlit
Object is in full shadow
Predictive observer data (real-time)
Local Sidereal Time14:26:29
Azimuth103.881° ESE
Elevation-87.887°
Doppler factor1
Orbital elements
Apogee511.279 km
Perigee494.892 km
Semi-major axis6,881.222 km
Eccentricity0.0011907
Inclination97.4879°
RAAN24.2559°
Arg. of periapsis329.373°
True anomaly30.75051°
Mean anomaly30.6808°
Eccentric anomaly30.71565°
Mean motion3.80229 °/min
BSTAR0.0010759
Period94.68 mins
No data available

MESON-1 Visibility forecast

Observer location: 39.9160978°, -105.1181434

MESON-1 is not visible in the next 10 days
Span
Click to sort rows by Start time (UTC) header in descending order
Start Az.
Max El. time (UTC)
Max El. Az.
Max El.
End time (UTC)
End Az.